Location: Grand Rapids
(42.9630°N, 85.6680°W)
Time: 03:32:01
(UTC-04:00)

Explorer 7 - All Passes

Search period start: 30 May 2024 00:00
Search period end: 09 June 2024 00:00
Orbit: 467 x 625 km, 50.3° (Epoch: 29 May)

Date Brightness Start Highest point End Pass type
(mag) Time Alt. Az. Time Alt. Az. Time Alt. Az.
30 May - 01:29:44 10° NW 01:33:15 33° NNE 01:36:55 10° E visible
30 May - 03:09:17 10° WNW 03:13:13 77° SSW 03:17:23 10° SE visible
30 May - 04:50:17 10° W 04:52:29 14° SW 04:54:43 10° SSW visible
30 May - 20:23:02 10° SSW 20:26:14 29° SE 20:29:28 10° ENE daylight
30 May - 22:02:11 10° W 22:05:46 51° NNW 22:09:26 10° NE visible
30 May - 23:42:48 10° WNW 23:46:01 26° N 23:49:20 10° ENE visible
31 May - 01:22:48 10° NW 01:26:23 37° NNE 01:30:08 10° E visible
31 May - 03:02:22 10° WNW 03:06:15 59° SW 03:10:19 10° SE visible
31 May - 04:44:52 10° WSW 04:45:22 10° SW 04:45:53 10° SW night (unlit)
31 May - 20:15:47 10° SSW 20:19:12 39° SE 20:22:39 10° ENE daylight
31 May - 21:55:21 10° W 21:58:51 42° NNW 22:02:27 10° NE visible
31 May - 23:35:59 10° WNW 23:39:11 26° N 23:42:28 10° ENE visible
01 Jun - 01:15:50 10° NW 01:19:29 43° NNE 01:23:19 10° E visible
01 Jun - 02:55:29 10° WNW 02:59:14 45° SW 03:03:10 10° SE visible
01 Jun - 20:08:37 10° SW 20:12:10 53° SE 20:15:45 10° ENE daylight
01 Jun - 21:48:32 10° W 21:51:57 36° NNW 21:55:27 10° NE visible
01 Jun - 23:29:07 10° NW 23:32:19 26° N 23:35:37 10° ENE visible
02 Jun - 01:08:50 10° NW 01:12:33 51° NNE 01:16:28 10° E visible
02 Jun - 02:48:37 10° WNW 02:52:11 34° SW 02:55:54 10° SSE visible
02 Jun - 18:25:12 10° SE 18:26:04 11° SE 18:26:55 10° ESE daylight
02 Jun - 20:01:31 10° SW 20:05:08 71° SSE 20:08:48 10° ENE daylight
02 Jun - 21:41:42 10° W 21:45:02 32° NNW 21:48:27 10° NE daylight
02 Jun - 23:22:12 10° NW 23:25:25 27° N 23:28:45 10° ENE visible
03 Jun - 01:01:50 10° NW 01:05:36 62° NNE 01:09:32 10° ESE visible
03 Jun - 02:41:50 10° W 02:45:06 26° SW 02:48:30 10° SSE visible
03 Jun - 18:16:47 10° SSE 18:18:54 15° SE 18:21:01 10° E daylight
03 Jun - 19:54:28 10° WSW 19:58:07 88° NNW 20:01:48 10° ENE daylight
03 Jun - 21:34:53 10° WNW 21:38:07 29° N 21:41:27 10° NE daylight
03 Jun - 23:15:15 10° NW 23:18:32 29° N 23:21:54 10° ENE visible
04 Jun - 00:54:48 10° WNW 00:58:36 78° NNE 01:02:34 10° ESE visible
04 Jun - 02:35:07 10° W 02:37:58 19° SW 02:40:55 10° S visible
04 Jun - 18:09:01 10° S 18:11:45 20° SE 18:14:28 10° E daylight
04 Jun - 19:47:28 10° WSW 19:51:05 69° NNW 19:54:45 10° ENE daylight
04 Jun - 21:28:01 10° WNW 21:31:12 27° N 21:34:27 10° NE daylight
04 Jun - 23:08:15 10° NW 23:11:36 31° NNE 23:15:02 10° ENE visible
05 Jun - 00:47:46 10° WNW 00:51:34 83° SSW 00:55:31 10° SE visible
05 Jun - 02:28:37 10° W 02:30:49 15° SW 02:33:03 10° SSW visible
05 Jun - 18:01:28 10° SSW 18:04:36 26° SE 18:07:42 10° E daylight
05 Jun - 19:40:29 10° WSW 19:44:04 55° NNW 19:47:41 10° NE daylight
05 Jun - 21:21:09 10° WNW 21:24:16 26° N 21:27:27 10° NE daylight
05 Jun - 23:01:12 10° NW 23:04:38 34° NNE 23:08:09 10° E visible
06 Jun - 00:40:45 10° WNW 00:44:29 64° SW 00:48:23 10° SE visible
06 Jun - 02:22:48 10° WSW 02:23:37 11° SW 02:24:25 10° SW visible
06 Jun - 17:54:04 10° SSW 17:57:27 35° SE 18:00:49 10° ENE daylight
06 Jun - 19:33:32 10° W 19:37:03 45° NNW 19:40:35 10° NE daylight
06 Jun - 21:14:13 10° WNW 21:17:19 25° N 21:20:28 10° ENE daylight
06 Jun - 22:54:08 10° NW 22:57:38 39° NNE 23:01:15 10° E visible
07 Jun - 00:33:44 10° WNW 00:37:22 48° SW 00:41:10 10° SE visible
07 Jun - 17:46:45 10° SW 17:50:18 48° SE 17:53:50 10° ENE daylight
07 Jun - 19:26:35 10° W 19:30:02 38° NNW 19:33:29 10° NE daylight
07 Jun - 21:07:15 10° NW 21:10:21 25° N 21:13:30 10° ENE daylight
07 Jun - 22:47:02 10° NW 22:50:36 46° NNE 22:54:18 10° E visible
08 Jun - 00:26:45 10° WNW 00:30:14 36° SW 00:33:50 10° SSE visible
08 Jun - 17:39:31 10° SW 17:43:10 64° SE 17:46:47 10° ENE daylight
08 Jun - 19:19:39 10° W 19:23:01 33° NNW 19:26:22 10° NE daylight
08 Jun - 21:00:15 10° NW 21:03:22 26° N 21:06:32 10° ENE daylight
08 Jun - 22:39:54 10° NW 22:43:33 56° NNE 22:47:17 10° ESE visible
